Hourly Weather Albany

Today, 27 September, Sunday

Time Temperature Precipitation Wind Pressure Humidity
00:00 +11°C° 0 mm 4 mps 755 mmHg 94%
01:00 +11°C° 0 mm 4 mps 755 mmHg 94%
02:00 +10°C° 0 mm 5 mps 755 mmHg 94%
03:00 +11°C° 0 mm 4 mps 755 mmHg 94%
04:00 +10°C° 0 mm 4 mps 755 mmHg 95%
05:00 +10°C° 0 mm 4 mps 755 mmHg 95%
06:00 +11°C° 0 mm 4 mps 756 mmHg 94%
07:00 +11°C° 0 mm 4 mps 756 mmHg 93%
08:00 +13°C° 0 mm 4 mps 757 mmHg 91%
09:00 +15°C° 0 mm 4 mps 757 mmHg 83%
10:00 +17°C° 0 mm 3 mps 757 mmHg 75%
11:00 +19°C° 0 mm 3 mps 757 mmHg 67%
12:00 +19°C° 0.1 mm 3 mps 757 mmHg 68%
13:00 +19°C° 0.1 mm 3 mps 756 mmHg 70%
14:00 +18°C° 0 mm 3 mps 756 mmHg 71%
15:00 +18°C° 0.1 mm 3 mps 756 mmHg 74%
16:00 +18°C° 0.1 mm 3 mps 757 mmHg 78%
17:00 +17°C° 0.1 mm 3 mps 757 mmHg 81%
18:00 +16°C° 0 mm 2 mps 757 mmHg 82%
19:00 +16°C° 0 mm 1 mps 757 mmHg 83%
20:00 +14°C° 0 mm 0 mps 758 mmHg 83%
21:00 +14°C° 0 mm 1 mps 757 mmHg 85%
22:00 +14°C° 0 mm 2 mps 757 mmHg 88%
23:00 +12°C° 0 mm 3 mps 757 mmHg 90%

Tomorrow, 28 September, Monday

Time Temperature Precipitation Wind Pressure Humidity
00:00 +12°C° 0 mm 3 mps 757 mmHg 90%
01:00 +12°C° 0 mm 3 mps 757 mmHg 89%
02:00 +12°C° 0 mm 3 mps 757 mmHg 89%
03:00 +12°C° 0 mm 4 mps 756 mmHg 90%
04:00 +11°C° 0 mm 4 mps 756 mmHg 91%
05:00 +11°C° 0 mm 4 mps 756 mmHg 92%
06:00 +12°C° 0 mm 4 mps 757 mmHg 90%
07:00 +13°C° 0 mm 5 mps 757 mmHg 87%
08:00 +14°C° 0 mm 5 mps 757 mmHg 84%
09:00 +15°C° 0.1 mm 5 mps 757 mmHg 81%
10:00 +16°C° 0.1 mm 5 mps 757 mmHg 77%
11:00 +17°C° 0.1 mm 5 mps 758 mmHg 73%
12:00 +17°C° 0 mm 6 mps 757 mmHg 70%
13:00 +17°C° 0 mm 6 mps 757 mmHg 67%
14:00 +17°C° 0 mm 6 mps 757 mmHg 64%
15:00 +16°C° 0 mm 6 mps 757 mmHg 67%
16:00 +16°C° 0 mm 6 mps 757 mmHg 69%
17:00 +15°C° 0 mm 5 mps 757 mmHg 71%
18:00 +14°C° 0 mm 5 mps 758 mmHg 75%
19:00 +13°C° 0 mm 5 mps 758 mmHg 78%
20:00 +11°C° 0 mm 4 mps 759 mmHg 82%
21:00 +11°C° 0 mm 4 mps 759 mmHg 84%
22:00 +10°C° 0 mm 4 mps 759 mmHg 87%
23:00 +10°C° 0 mm 4 mps 759 mmHg 89%

Day after tomorrow, 29 September, Tuesday

Time Temperature Precipitation Wind Pressure Humidity
00:00 +10°C° 0 mm 4 mps 758 mmHg 89%
01:00 +10°C° 0 mm 4 mps 758 mmHg 89%
02:00 +8°C° 0 mm 5 mps 758 mmHg 89%
03:00 +9°C° 0 mm 5 mps 757 mmHg 89%
04:00 +9°C° 0 mm 5 mps 757 mmHg 89%
05:00 +9°C° 0 mm 5 mps 757 mmHg 89%
06:00 +10°C° 0 mm 6 mps 757 mmHg 86%
07:00 +13°C° 0 mm 6 mps 757 mmHg 83%
08:00 +14°C° 0 mm 6 mps 757 mmHg 79%
09:00 +15°C° 0 mm 6 mps 757 mmHg 75%
10:00 +17°C° 0 mm 6 mps 757 mmHg 71%
11:00 +19°C° 0 mm 6 mps 757 mmHg 67%
12:00 +18°C° 0 mm 7 mps 756 mmHg 67%
13:00 +18°C° 0 mm 7 mps 756 mmHg 68%
14:00 +18°C° 0 mm 7 mps 756 mmHg 69%
15:00 +18°C° 0 mm 7 mps 756 mmHg 71%
16:00 +17°C° 0 mm 7 mps 756 mmHg 74%
17:00 +16°C° 0 mm 7 mps 756 mmHg 76%
18:00 +16°C° 0.1 mm 7 mps 757 mmHg 77%
19:00 +15°C° 0.1 mm 6 mps 757 mmHg 77%
20:00 +15°C° 0.1 mm 6 mps 757 mmHg 78%
21:00 +14°C° 0.1 mm 6 mps 757 mmHg 81%
22:00 +14°C° 0.1 mm 6 mps 757 mmHg 83%
23:00 +14°C° 0.1 mm 5 mps 757 mmHg 86%

30 September, Wednesday

Time Temperature Precipitation Wind Pressure Humidity
00:00 +13°C° 0.1 mm 5 mps 757 mmHg 87%
01:00 +13°C° 0.1 mm 5 mps 757 mmHg 89%
02:00 +13°C° 0.1 mm 5 mps 757 mmHg 90%
03:00 +12°C° 0.1 mm 5 mps 757 mmHg 92%
04:00 +12°C° 0.1 mm 4 mps 757 mmHg 93%
05:00 +11°C° 0.1 mm 4 mps 757 mmHg 95%
06:00 +12°C° 0 mm 5 mps 757 mmHg 91%
07:00 +14°C° 0 mm 5 mps 757 mmHg 87%
08:00 +15°C° 0 mm 5 mps 757 mmHg 84%
09:00 +16°C° 0 mm 5 mps 757 mmHg 79%
10:00 +17°C° 0 mm 5 mps 757 mmHg 74%
11:00 +19°C° 0 mm 5 mps 757 mmHg 69%
12:00 +19°C° 0 mm 5 mps 756 mmHg 68%
13:00 +20°C° 0 mm 5 mps 755 mmHg 67%
14:00 +20°C° 0 mm 5 mps 755 mmHg 66%
15:00 +20°C° 0 mm 4 mps 755 mmHg 69%
16:00 +20°C° 0 mm 4 mps 755 mmHg 72%
17:00 +19°C° 0 mm 4 mps 755 mmHg 75%
18:00 +17°C° 0 mm 5 mps 755 mmHg 77%
19:00 +16°C° 0 mm 5 mps 755 mmHg 78%
20:00 +14°C° 0 mm 5 mps 755 mmHg 80%
21:00 +14°C° 0 mm 5 mps 755 mmHg 81%
22:00 +13°C° 0 mm 5 mps 755 mmHg 82%
23:00 +13°C° 0 mm 5 mps 755 mmHg 83%

1 October, Thursday

Time Temperature Precipitation Wind Pressure Humidity
00:00 +13°C° 0 mm 6 mps 754 mmHg 78%
01:00 +14°C° 0 mm 6 mps 754 mmHg 73%
02:00 +15°C° 0 mm 6 mps 753 mmHg 69%
03:00 +15°C° 0 mm 6 mps 753 mmHg 69%
04:00 +15°C° 0 mm 6 mps 753 mmHg 70%
05:00 +15°C° 0 mm 6 mps 753 mmHg 70%
06:00 +15°C° 0 mm 6 mps 753 mmHg 71%
07:00 +15°C° 0 mm 6 mps 753 mmHg 72%
08:00 +15°C° 0 mm 6 mps 753 mmHg 73%
09:00 +16°C° 0 mm 6 mps 753 mmHg 72%
10:00 +16°C° 0 mm 6 mps 753 mmHg 70%
11:00 +17°C° 0 mm 6 mps 753 mmHg 69%
12:00 +17°C° 0 mm 6 mps 753 mmHg 69%
13:00 +19°C° 0 mm 6 mps 752 mmHg 68%
14:00 +19°C° 0 mm 6 mps 752 mmHg 67%
15:00 +17°C° 0.1 mm 6 mps 752 mmHg 70%
16:00 +17°C° 0.1 mm 6 mps 752 mmHg 72%
17:00 +16°C° 0.1 mm 6 mps 752 mmHg 74%
18:00 +16°C° 0 mm 6 mps 753 mmHg 76%
19:00 +15°C° 0 mm 5 mps 753 mmHg 79%
20:00 +15°C° 0 mm 5 mps 754 mmHg 81%
21:00 +14°C° 0.2 mm 4 mps 754 mmHg 85%
22:00 +13°C° 0.2 mm 4 mps 754 mmHg 88%
23:00 +13°C° 0.2 mm 4 mps 754 mmHg 92%

2 October, Friday

Time Temperature Precipitation Wind Pressure Humidity
00:00 +12°C° 0.6 mm 4 mps 754 mmHg 92%
01:00 +12°C° 0.6 mm 5 mps 753 mmHg 92%
02:00 +12°C° 0.6 mm 5 mps 753 mmHg 92%
03:00 +12°C° 0.1 mm 5 mps 754 mmHg 91%
04:00 +11°C° 0.1 mm 4 mps 754 mmHg 91%
05:00 +11°C° 0.1 mm 4 mps 754 mmHg 90%
06:00 +11°C° 0 mm 4 mps 754 mmHg 87%
07:00 +10°C° 0 mm 5 mps 755 mmHg 83%
08:00 +12°C° 0 mm 5 mps 755 mmHg 80%
09:00 +12°C° 0.1 mm 5 mps 756 mmHg 75%
10:00 +12°C° 0.1 mm 5 mps 756 mmHg 70%
11:00 +13°C° 0.1 mm 5 mps 757 mmHg 65%
12:00 +13°C° 0.1 mm 6 mps 757 mmHg 64%
13:00 +13°C° 0.1 mm 6 mps 757 mmHg 63%
14:00 +12°C° 0.1 mm 7 mps 757 mmHg 61%
15:00 +11°C° 0.1 mm 7 mps 757 mmHg 62%
16:00 +11°C° 0.1 mm 7 mps 757 mmHg 63%
17:00 +11°C° 0.1 mm 7 mps 757 mmHg 64%
18:00 +10°C° 0.1 mm 7 mps 758 mmHg 68%
19:00 +9°C° 0.1 mm 6 mps 759 mmHg 72%
20:00 +8°C° 0.1 mm 6 mps 760 mmHg 76%
21:00 +7°C° 0.3 mm 6 mps 760 mmHg 79%
22:00 +7°C° 0.3 mm 6 mps 760 mmHg 83%
23:00 +7°C° 0.3 mm 6 mps 761 mmHg 87%
Show more